Regional Weather Roundup
Issued by NWS

Home | Current Version | Previous Version | Graphics & Text | Print | Product List | Glossary On
Versions: 1 2 3 4 5 6 7 8 9 10 11 12 13 14 15 16 17 18 19 20 21 22 23 24 25 26 27 28 29 30 31 32 33 34 35 36 37 38 39 40 41 42 43 44 45 46 47 48 49 50
000
ASUS43 KMPX 040010
RWRMN
WEATHER ROUNDUP FOR MINNESOTA
NATIONAL WEATHER SERVICE TWIN CITIES/CHANHASSEN MN
700 PM CDT FRI JUL 03 2015


NOTE: "FAIR" INDICATES FEW OR NO CLOUDS BELOW 12,000 FEET WITH NO
SIGNIFICANT WEATHER AND/OR OBSTRUCTIONS TO VISIBILITY. N/A MEANS
CURRENT SKY AND/OR WEATHER CONDITIONS ARE NOT AVAILABLE.

MNZ060>063-068>070-040100-
   Twin Cities Metro

CITY           SKY/WX    TMP DP  RH WIND       PRES   REMARKS
TWIN CITIES    PTSUNNY   78  58  49 SW10      29.90F
6HR MIN TEMP:  76; 6HR MAX TEMP:  80;

ST PAUL        SUNNY     77  60  55 SW7       29.90S
CRYSTAL        MOSUNNY   79  58  48 SW8       29.88F
LAKEVILLE      SUNNY     73  57  56 W3        29.91F
EDEN PRAIRIE   MOSUNNY   77  60  55 SW6       29.90F
6HR MIN TEMP:  76; 6HR MAX TEMP:  79;

SOUTH ST PAUL  SUNNY     77  58  50 SW6       29.90F
LAKE ELMO      FAIR      77  61  57 SW9       29.91F
$$
MNZ001>005-007-008-013>017-022>024-027-028-040100-
   Northwest Minnesota

CITY           SKY/WX    TMP DP  RH WIND       PRES   REMARKS
BEMIDJI        SUNNY     76  59  56 N3        29.91F
HALLOCK        MOSUNNY   79  63  57 CALM      29.90S HAZE
ROSEAU         SUNNY     77  63  61 N3        29.90S
WARROAD        SUNNY     75  63  64 E6        29.91S
THIEF RVR FALL MOSUNNY   77  61  57 W3        29.92S
CROOKSTON      MOSUNNY   77  61  57 CALM      29.91F HAZE
FOSSTON        SUNNY     75  63  64 CALM      29.93S HAZE
DETROIT LAKES  SUNNY     77  57  50 CALM      29.93S HAZE
MOORHEAD       SUNNY     81  64  57 NE5       29.90F HAZE
PARK RAPIDS    PTSUNNY   79  56  45 N8        29.92R HAZE
MAHNOMEN       FAIR      76  60  57 N5        29.92S
$$
MNZ006-009>011-018-025>026-040100-
   North Central Minnesota

CITY           SKY/WX    TMP DP  RH WIND       PRES   REMARKS
BAUDETTE       SUNNY     78  53  41 CALM      29.90F
FLAG ISLAND    SUNNY     75  61  60 CALM      29.89S
INTL FALLS     SUNNY     76  53  44 NE5       29.89S
6HR MIN TEMP:  75; 6HR MAX TEMP:  80;

WASKISH        SUNNY     77  55  47 N7        29.91S
BIG FORK       SUNNY     77  55  47 CALM      29.90S
LONGVILLE      SUNNY     75  61  60 NW3       29.91S HAZE
GRAND RAPIDS   SUNNY     77  54  44 NW13      29.90S
CRANE LAKE     SUNNY     75  52  43 NW6       29.90S
ORR            SUNNY     75  50  41 CALM      29.87S
COOK           SUNNY     75  54  46 CALM      29.90S
WALKER         FAIR      75  60  60 CALM      29.91S
$$
MNZ012-019>021-037-040100-
   Northeast Minnesota

CITY           SKY/WX    TMP DP  RH WIND       PRES   REMARKS
DULUTH         MOSUNNY   77  57  50 N8        29.88R SMOKE
6HR MIN TEMP:  77; 6HR MAX TEMP:  81;

ELY            MOSUNNY   75  50  41 NW7       29.89R
HIBBING        SUNNY     77  54  44 N10       29.89S
DULUTH HARBOR  MOSUNNY   79  57  47 N7        29.85R
TWO HARBORS    SUNNY     81  61  50 NW5       29.84S
SILVER BAY     SUNNY     79  55  44 N6        29.84S
GRAND MARAIS     N/A     74  52  46 VRB5      29.82R
G MARAIS ARPRT MOSUNNY   72  50  46 NW6       29.89S
$$
MNZ029>031-032-039>041-046>048-054>057-064-040100-
   West Central Minnesota

CITY           SKY/WX    TMP DP  RH WIND       PRES   REMARKS
FERGUS FALLS   MOSUNNY   81  61  50 CALM      29.89F HAZE
WHEATON        MOSUNNY   75  64  69 N3        29.92S HAZE
MORRIS         MOSUNNY   81  63  54 N3        29.90F HAZE
ALEXANDRIA     PTSUNNY   78  61  55 NW5       29.93S HAZE
ELBOW LAKE     FAIR      78  61  55 CALM      29.91S HAZE
WADENA         MOSUNNY   77  63  61 N5        29.92R HAZE
GLENWOOD       MOSUNNY   79  63  57 NW6       29.93S HAZE
APPLETON       MOSUNNY   82  63  51 N3        29.90S HAZE
BENSON         MOSUNNY   79  64  61 CALM      29.91S HAZE
ORTONVILLE     MOSUNNY   81  63  54 N3        29.91S HAZE
MADISON        MOSUNNY   81  64  57 NE5       29.91S
WILLMAR        FAIR      81  66  61 SW6       29.92F
$$
MNZ033>034-036-042>043-049>051-058-059-040100-
   Central Minnesota

CITY           SKY/WX    TMP DP  RH WIND       PRES   REMARKS
ST CLOUD       PTSUNNY   79  64  60 W8        29.89S HAZE
6HR MIN TEMP:  78; 6HR MAX TEMP:  81;

SAUK CENTRE    FAIR      78  63  59 NW5       29.91S HAZE
PAYNESVILLE    MOSUNNY   76  65  70 SW5       29.91S
AITKIN         SUNNY     77  63  61 NW3       29.89R HAZE
PINE RIVER       N/A     77  61  57 N6        29.94S HAZE
BRAINERD       CLOUDY    78  62  57 N6        29.91R HAZE
STAPLES        MOSUNNY   79  61  53 CALM      29.91S HAZE
LONG PRAIRIE   CLOUDY    77  63  61 W3        29.92S HAZE
LITTLE FALLS   CLOUDY    79  61  53 W6        29.90S HAZE
LITCHFIELD     SUNNY     79  63  57 SW5       29.92S
BUFFALO        MOSUNNY   77  60  55 SW5       29.91F
MAPLE LAKE     MOSUNNY   78  65  63 CALM      29.91S
$$
MNZ037-044-045-052-053-040100-
   East Central Minnesota

CITY           SKY/WX    TMP DP  RH WIND       PRES   REMARKS
PRINCETON      MOSUNNY   79  64  61 SW3       29.89S
MORA           SUNNY     75  63  64 NW5       29.90S HAZE
CAMBRIDGE      MOSUNNY   79  63  57 CALM      29.87F
RUSH CITY      MOSUNNY   77  64  65 SW5       29.89S
MOOSE LAKE     PTSUNNY   77  63  61 N3        29.86S HAZE
HINCKLEY       FAIR      79  68  69 W5        29.88S HAZE
CLOQUET        SUNNY     77  55  47 NW6       29.88S
MCGREGOR       MOSUNNY   77  61  57 NW7       29.89S
$$
MNZ071>073-080-081-089-090-097-098-040100-
   Southwest Minnesota

CITY           SKY/WX    TMP DP  RH WIND       PRES   REMARKS
MONTEVIDEO     MOSUNNY   82  64  54 CALM      29.91F
GRANITE FALLS  MOSUNNY   79  64  59 CALM      29.92F
CANBY          PTSUNNY   80  65  61 CALM      29.92S
MARSHALL       MOSUNNY   81  64  57 SW5       29.91F
REDWOOD FALLS  SUNNY     80  61  52 CALM      29.91F
OLIVIA         SUNNY     75  59  57 SW3       29.92S
PIPESTONE      MOSUNNY   77  64  65 W6        29.96S
WINDOM         SUNNY     79  55  44 CALM      29.95S
WORTHINGTON    SUNNY     75  57  53 W6        29.96S
JACKSON        SUNNY     77  57  50 W5        29.96S
TRACY          SUNNY     79  64  59 CALM      29.94S
SLAYTON        MOSUNNY   78  61  55 CALM      29.96S
$$
MNZ065>067-074>077-082>085-091>093-040100-
   South Central Minnesota

CITY           SKY/WX    TMP DP  RH WIND       PRES   REMARKS
MANKATO        SUNNY     75  55  50 W5        29.93F
NEW ULM        SUNNY     77  57  50 CALM      29.92F
ST JAMES       SUNNY     79  61  53 SW3       29.94F
FAIRMONT       SUNNY     77  52  41 CALM      29.94S
GLENCOE        MOSUNNY   78  61  55 SW5       29.92S
FARIBAULT      SUNNY     75  57  53 CALM      29.93F
OWATONNA       SUNNY     75  54  46 W3        29.94S
WASECA         SUNNY     72  55  56 W3        29.95F
ALBERT LEA     SUNNY     75  54  46 CALM      29.94F
$$
MNZ078>079-086>088-094>096-040100-
   Southeast Minnesota

CITY           SKY/WX    TMP DP  RH WIND       PRES   REMARKS
ROCHESTER      SUNNY     75  54  47 W6        29.95S
6HR MIN TEMP:  74; 6HR MAX TEMP:  77;

RED WING       SUNNY     79  54  41 W6        29.90S
STANTON        SUNNY     75  55  50 SW6       29.91F
DODGE CENTER   SUNNY     73  55  53 W7        29.94F
WINONA         SUNNY     77  57  50 W3        29.92S
AUSTIN         SUNNY     75  54  46 W3        29.94F
PRESTON        SUNNY     73  57  57 W5        29.95S
$$
ABBREVIATIONS USED IN REMARKS
   TC - TEMPERATURES IN CELSIUS
  WCI - WIND CHILL INDEX
   HX - HEAT INDEX
  VSB - VISIBILITY
$$



USA.gov is the U.S. government's official web portal to all federal, state and local government web resources and services.